Tracking 32968 objects as of 17-Jan-2026
HD Live streaming from Space Station
objects crossing your sky now

STARLINK-31306

Track STARLINK-31306 now!
10-day predictions
STARLINK-31306 is classified as:


NORAD ID: 58876
Int'l Code: 2024-020A
Perigee: 481.4 km
Apogee: 483.2 km
Inclination: 53.2 °
Period: 94.1 minutes
Semi major axis: 6853 km
RCS: Unknown
Launch date: January 29, 2024
Source: United States (US)
Launch site: AIR FORCE WESTERN TEST RANGE (AFWTR)
Your satellite tracking list
Your tracking list is empty




NASA's NSSDC Master Catalog

Two Line Element Set (TLE):
1 58876U 24020A   26017.47726416  .00003802  00000-0  14031-3 0  9990
2 58876  53.1610 200.0572 0001334 106.6517 253.4630 15.30225912111416
Source of the keplerian elements: AFSPC